HST 1 20580U 90037B 25130.74678308 .00006916 00000-0 26164-3 0 9992 2 20580 28.4679 298.6268 0002745 39.7983 320.2813 15.24916582726963 ISS (ZARYA) 1 25544U 98067A 25131.32084234 .00008972 00000-0 16809-3 0 9991 2 25544 51.6374 129.6845 0002568 102.5783 282.9354 15.49465690509444 CXO 1 25867U 99040B 25132.41211790 .00000614 00000-0 00000-0 0 9999 2 25867 48.7216 131.4145 8476609 308.9568 359.8615 0.37808717 15808